CAPE
1 0 0 0 0 0 0 0 0 0 0 0 0 0 0 0 0 0 0 0 0 0 0 0 0 0 0 0 0 0 0 0 12 0 0 0 0 31 96 407 436 440 416
4 0 0 0 0 0 0 0 0 0 0 0 0 0 0 0 0 0 0 0 0 0 0 0 0 0 0 0 0 0 0 0 0 0 0 0 0 0 0 8 486 373 643
0 0 0 0 0 0 0 0 0 0 0 0 0 0 0 0 0 0 0 0 0 0 0 0 0 0 0 0 0 0 0 0 0 0 0 0 0 0 0 56 397 598 549
0 0 0 0 0 0 0 0 0 0 0 0 0 0 0 0 0 0 0 0 0 0 0 0 0 0 0 0 0 0 1 0 4 6 4 1 0 0 0 0 0 35 344
0 0 0 0 0 0 0 0 0 0 0 0 0 0 0 0 0 0 0 0 0 0 0 0 0 0 0 0 0 2 0 0 3 10 8 4 1 0 0 0 0 0 0
0 0 0 0 0 0 0 0 0 0 0 0 0 0 0 0 0 0 0 0 0 0 0 0 0 0 0 0 0 10 12 5 11 28 12 1 0 4 11 9 0 0 0
0 0 0 0 0 0 0 0 0 0 0 0 0 0 0 0 0 0 0 0 0 0 0 0 0 0 0 0 2 32 28 33 32 16 36 26 19 9 2 2 1 1 0
0 0 0 0 0 0 0 0 0 0 0 0 0 0 0 0 0 0 0 0 0 0 0 0 0 0 0 0 3 5 6 6 0 3 10 36 23 32 25 10 4 3 5
0 0 0 0 0 0 0 0 0 0 0 0 0 0 0 0 0 0 0 0 0 0 0 0 0 0 0 7 10 7 6 7 11 19 23 47 58 46 40 19 5 5 1
0 0 0 0 0 0 0 0 0 0 0 0 0 0 0 0 0 0 0 0 0 0 0 0 0 0 0 0 2 3 5 2 7 7 3 13 40 36 43 40 30 20 5
0 0 0 0 0 0 0 0 0 0 0 0 0 0 0 0 0 0 0 0 0 0 0 0 0 0 0 0 0 1 2 3 6 19 11 10 2 45 19 13 20 34 48
0 0 0 0 0 8 0 0 0 0 0 0 4 0 0 0 0 0 0 0 0 0 0 0 0 0 0 0 0 0 0 4 3 7 8 9 11 14 22 29 18 5 4
0 0 0 0 0 0 0 0 0 0 0 3 10 2 0 0 0 0 0 0 0 0 0 0 0 0 0 0 0 0 0 0 1 2 1 1 3 12 10 12 14 12 10
0 0 0 0 0 0 0 0 0 0 0 4 2 0 0 0 0 0 0 0 0 0 0 0 0 0 1 5 1 1 3 1 0 0 0 0 0 1 6 5 3 2 1
0 0 0 0 0 0 0 0 0 0 12 9 2 2 0 0 0 0 0 0 0 0 0 0 0 0 2 9 5 4 4 7 14 5 1 3 7 8 5 0 3 0 1
0 0 0 0 0 0 0 0 8 1 9 0 0 0 0 0 0 0 0 0 0 0 0 0 0 0 0 2 3 8 6 6 4 8 11 17 13 11 17 7 3 1 1
0 0 0 0 0 0 3 8 2 32 3 0 0 0 0 0 0 0 0 0 0 0 0 0 0 0 0 0 0 0 7 9 5 4 7 14 11 7 4 5 8 18 1
0 0 0 0 2 8 6 4 20 28 0 0 0 0 0 0 0 0 0 0 0 0 0 0 0 0 0 0 0 0 0 4 4 2 4 4 8 17 18 4 6 7 3
0 0 0 0 0 0 0 0 0 3 0 0 0 0 0 0 0 0 0 0 0 0 0 0 0 0 0 0 0 0 0 0 0 1 0 2 1 3 4 27 11 0 0
0 0 0 0 0 0 0 8 4 1 0 0 0 0 0 0 0 0 0 0 0 0 0 0 0 0 0 0 0 0 0 0 0 0 0 0 1 3 6 8 6 14 1
0 0 0 0 0 0 0 0 0 0 0 0 0 0 0 0 0 0 0 0 0 0 0 0 0 0 0 0 0 0 0 0 0 0 0 0 0 1 2 5 6 10 19
0 0 0 0 0 0 0 0 0 0 0 0 0 0 0 0 0 0 0 0 0 0 0 0 0 0 0 0 0 0 0 0 0 0 0 0 0 0 0 3 4 8 6
0 0 0 0 0 0 0 0 0 0 0 0 0 0 0 0 0 0 0 0 0 0 0 0 0 0 0 0 0 0 0 0 0 0 0 0 0 0 0 1 2 10 9
0 0 0 0 0 0 0 0 0 0 0 0 0 0 0 0 0 0 0 0 0 0 0 0 0 0 0 0 0 0 0 0 0 0 0 0 0 0 0 0 0 1 2
0 0 0 0 0 0 0 0 0 0 0 0 0 0 0 0 0 0 0 0 0 0 0 0 0 0 0 0 0 0 0 0 0 0 0 0 0 0 0 0 0 0 0
0 0 0 0 0 0 0 0 0 0 0 0 0 0 0 0 0 0 0 0 0 0 0 0 0 0 0 0 0 0 0 0 0 0 0 0 0 0 0 0 0 0 0
CIN
0 0 0 0 0 0 0 0 0 0 0 0 0 0 0 0 0 0 0 0 0 0 0 0 0 0 0 0 0 0 0 -1 -1 0 0 0 0 -92 -128 -223 -226 -241 -269
0 0 0 0 0 0 0 0 0 0 0 0 0 0 0 0 0 0 0 0 0 0 0 0 0 0 0 0 0 0 0 0 0 0 0 0 0 0 0 -159 -202 -215 -170
0 0 0 0 0 0 0 0 0 0 0 0 0 0 0 0 0 0 0 0 0 0 0 0 0 0 0 0 0 0 0 0 0 -1 0 0 0 0 0 -213 -186 -170 -192
0 0 0 0 0 0 0 0 0 0 0 0 0 0 0 0 0 0 0 0 0 0 0 0 0 0 0 0 0 0 -1 -1 -1 -1 -1 0 0 0 0 0 0 -129 -176
0 0 0 0 0 0 0 0 0 0 0 0 0 0 0 0 0 0 0 0 0 0 0 0 0 0 0 0 0 -2 -1 -1 -1 -1 0 0 0 0 0 0 0 0 0
0 0 0 0 0 0 0 0 0 0 0 0 0 0 0 0 0 0 0 0 0 0 0 0 0 0 0 0 0 0 0 -1 -1 -1 0 -2 -2 -1 -1 -8 0 0 0
0 0 0 0 0 0 0 0 0 0 0 0 0 0 0 0 0 0 0 0 0 0 0 0 0 0 0 0 -1 0 0 0 0 -2 0 -1 -1 -3 -2 -2 -7 -4 0
0 0 0 0 0 0 0 0 0 0 0 0 0 0 0 0 0 0 0 0 0 0 0 0 0 0 0 0 -3 0 0 0 0 -1 0 0 -3 -2 -2 -3 -2 -10 -20
0 0 0 0 0 0 0 0 0 0 0 0 0 0 0 0 0 0 0 0 0 0 0 0 0 0 0 -1 0 0 0 0 0 0 0 0 -1 -4 -4 -1 -2 -2 -2
0 0 0 0 0 0 0 0 0 0 0 0 0 0 0 0 0 0 0 0 0 0 0 0 0 0 0 0 -2 0 0 0 0 0 -1 0 -1 -5 -4 -2 -2 -1 -1
0 0 0 0 0 0 0 0 0 0 0 0 0 0 0 0 0 0 0 0 0 0 0 0 0 0 0 0 0 0 0 0 0 0 -1 0 -1 -2 -4 -4 -18 -10 -1
0 0 0 0 0 -165 0 0 0 0 0 0 -257 0 0 0 0 0 0 0 0 0 0 0 0 0 0 0 0 -1 -1 0 0 0 0 0 -1 -1 -4 -8 -5 -13 -14
0 0 0 0 0 0 0 0 0 0 0 -262 -262 -225 0 0 0 0 0 0 0 0 0 0 0 0 0 0 0 0 0 0 0 0 0 0 0 0 -1 -3 -3 -2 -9
0 0 0 0 0 0 0 0 0 0 0 -270 -160 0 0 0 0 0 0 0 0 0 0 0 0 0 -5 -2 -1 -1 -1 -1 0 0 0 0 0 -7 -13 -10 -8 -11 0
0 0 0 0 0 0 0 0 0 0 -243 -198 -89 -92 0 0 0 0 0 0 0 0 0 0 0 0 -2 -1 -1 -1 -2 -1 0 0 -1 -2 -1 -16 -18 -14 -46 -1 -1
0 0 0 0 0 0 0 0 -245 -75 -255 0 -108 0 0 0 0 0 0 0 0 0 0 0 0 0 0 -1 -1 -1 -1 -1 -1 -1 -1 0 -13 -5 -20 -24 -24 0 0
0 0 0 0 0 0 -211 -241 -37 -195 -66 0 0 0 0 0 0 0 0 0 0 0 0 0 0 0 0 0 0 -1 0 0 -1 -1 -1 0 0 0 -1 -2 -29 -15 -3
0 0 0 0 -165 -191 -212 -245 -207 -163 -14 0 0 0 0 0 0 0 0 0 0 0 0 0 0 0 0 0 0 0 0 -1 -1 -1 -1 -2 -1 0 0 0 -46 -10 -32
0 0 0 0 0 0 0 0 0 -134 -192 0 0 0 0 0 0 0 0 0 0 0 0 0 0 0 0 0 0 0 0 0 0 -1 -1 -1 -1 -1 0 0 -7 0 0
0 0 0 0 0 0 0 -288 -221 -178 0 0 0 0 0 0 0 0 0 0 0 0 0 0 0 0 0 0 0 0 0 0 0 0 0 -1 -1 -1 0 0 0 -15 -1
0 0 0 0 0 0 0 0 0 0 0 0 0 0 0 0 0 0 0 0 0 0 0 0 0 0 0 0 0 0 0 0 0 0 0 0 0 0 -1 -1 -13 0 -4
0 0 0 0 0 0 0 0 0 0 0 0 0 0 0 0 0 0 0 0 0 0 0 0 0 0 0 0 0 0 0 0 0 0 0 0 0 0 0 -12 -1 0 0
0 0 0 0 0 0 0 0 0 0 0 0 0 0 0 0 0 0 0 0 0 0 0 0 0 0 0 0 0 0 0 0 0 0 0 0 0 0 0 0 0 -3 0
0 0 0 0 0 0 0 0 0 0 0 0 0 0 0 0 0 0 0 0 0 0 0 0 0 0 0 0 0 0 0 0 0 0 0 0 0 0 0 0 0 0 0
0 0 0 0 0 0 0 0 0 0 0 0 0 0 0 0 0 0 0 0 0 0 0 0 0 0 0 0 0 0 0 0 0 0 0 0 0 0 0 0 0 0 0
0 0 0 0 0 0 0 0 0 0 0 0 0 0 0 0 0 0 0 0 0 0 0 0 0 0 0 0 0 0 0 0 0 0 0 0 0 0 0 0 0 0 0
Wind_Speed
9 7 7 6 6 5 4 5 4 4 5 5 5 8 6 6 6 6 5 6 6 6 6 6 7 7 7 8 7 7 8 6 9 16 11 12 13 10 11 9 9 9 8
6 5 6 6 5 6 5 4 5 5 4 4 5 4 5 5 3 4 4 4 5 5 6 6 7 8 8 9 7 10 9 10 10 16 16 12 13 11 13 13 9 9 9
5 4 4 4 2 4 3 3 5 4 4 5 6 5 4 3 2 2 2 3 4 4 6 6 8 8 9 9 10 10 10 10 11 13 14 13 12 10 11 9 9 8 7
5 5 4 4 5 4 3 4 3 3 2 2 1 2 2 4 4 5 5 5 5 5 6 6 8 8 10 11 10 12 12 12 12 12 13 13 13 11 7 8 10 5 5
4 5 4 4 4 5 3 3 3 2 3 5 4 4 4 3 4 5 5 6 7 8 7 7 8 12 23 19 12 12 16 14 13 13 14 13 12 11 12 8 8 6 7
5 6 6 6 5 5 5 5 5 5 6 5 6 6 6 4 10 13 10 6 7 6 7 9 9 17 17 24 26 28 24 16 16 15 15 18 17 14 12 9 7 7 10
6 5 5 6 5 6 5 4 4 5 5 7 6 6 8 7 12 13 16 6 6 9 10 11 12 12 21 17 21 26 25 27 27 20 21 18 18 16 13 15 13 8 10
3 4 4 4 5 4 4 4 5 5 7 6 7 7 6 9 14 15 19 10 8 11 10 11 13 17 17 21 20 20 19 18 18 16 18 19 17 15 15 15 16 13 9
1 2 3 4 5 5 6 7 6 5 6 6 6 8 7 11 16 15 14 7 8 10 10 10 13 17 23 27 22 22 21 19 18 27 28 29 28 27 21 12 12 12 13
5 6 5 5 5 7 7 7 4 4 6 5 8 7 11 11 15 15 13 5 8 8 10 13 19 21 26 28 21 20 19 19 17 15 14 17 19 19 26 20 13 14 13
5 5 5 5 6 7 6 4 5 6 6 7 7 10 9 10 13 16 9 5 6 6 9 12 13 27 29 32 33 18 16 18 20 14 11 10 11 12 10 11 13 13 12
4 5 6 6 5 4 5 6 6 5 6 9 6 8 8 9 11 10 10 10 9 4 10 10 14 27 32 32 25 26 26 19 9 8 8 9 10 11 10 10 14 15 15
4 6 6 6 6 6 5 7 5 4 5 7 5 7 9 9 7 5 11 10 10 4 7 14 24 25 27 22 27 29 22 8 7 7 9 10 11 11 12 12 13 17 17
6 7 6 6 6 6 4 4 5 6 5 6 7 7 8 8 8 3 5 4 7 6 9 11 17 20 19 18 17 15 12 9 8 9 10 10 10 10 10 10 11 11 13
6 6 6 5 6 6 6 6 5 8 8 7 8 7 6 9 10 8 7 5 4 4 7 6 7 8 10 10 11 11 10 10 10 10 9 9 10 10 10 10 11 11 13
6 5 5 5 5 5 5 8 11 18 18 15 19 14 10 13 12 12 12 12 8 2 2 6 8 7 8 10 10 11 9 14 12 12 10 9 10 10 11 11 11 11 12
6 6 5 6 5 5 4 5 7 11 10 16 18 15 15 17 13 13 13 11 5 0 4 7 7 7 7 8 8 9 12 10 12 11 11 12 12 12 12 11 12 11 11
7 10 6 6 5 6 5 7 7 8 9 10 15 8 14 11 15 14 10 3 4 4 4 7 7 6 7 7 8 9 10 10 10 10 11 13 12 12 10 11 12 13 11
6 6 6 6 6 8 7 7 6 8 8 9 11 10 9 11 7 8 9 5 5 5 5 6 6 6 6 5 6 7 8 10 10 9 10 10 12 13 13 12 12 13 11
7 14 12 7 7 6 6 7 7 8 8 9 9 11 5 1 3 5 7 6 7 7 7 7 6 5 5 6 6 5 7 8 9 9 10 10 10 11 13 15 15 11 8
6 7 10 5 6 8 7 8 8 8 9 9 10 10 12 7 8 8 7 7 9 8 9 8 6 5 5 5 5 5 5 7 7 8 8 9 10 11 12 13 15 15 8
6 7 7 8 8 7 8 8 8 8 10 10 11 10 11 5 7 9 9 8 8 9 8 8 7 6 5 5 5 5 5 6 8 8 8 8 8 8 10 11 15 16 12
6 8 9 8 8 9 8 8 8 9 10 10 10 8 7 7 7 9 10 10 8 8 8 8 8 7 6 6 5 5 5 5 6 7 9 8 7 8 8 9 11 13 13
7 9 8 8 7 7 7 8 9 10 10 10 9 9 6 5 7 11 10 9 8 8 7 7 8 10 7 7 5 5 5 4 4 6 8 7 5 7 5 7 8 10 10
7 7 7 8 8 8 8 9 9 8 7 6 6 4 5 6 5 8 6 6 5 5 6 6 5 6 7 8 7 7 7 2 4 7 6 7 8 8 6 4 4 5 6
8 7 8 7 7 8 9 9 9 7 6 5 4 4 4 4 4 4 4 5 5 5 5 4 7 10 8 4 6 11 7 8 5 7 6 5 5 6 5 5 8 4 4
Wind_Direction
82 84 79 56 56 52 67 94 75 33 29 17 39 64 30 36 30 41 12 21 14 360 343 346 329 324 325 316 308 301 298 292 282 294 291 297 296 298 295 284 282 288 282
84 82 82 94 86 63 359 99 91 80 60 58 53 71 38 38 39 34 23 10 5 353 320 330 317 323 312 307 306 301 292 287 282 280 288 290 285 288 281 277 269 269 271
106 104 104 100 99 118 142 87 73 74 51 42 44 34 16 343 348 337 343 320 316 302 289 296 302 310 307 308 302 299 293 288 284 281 282 284 284 290 290 291 275 267 264
126 126 127 129 120 116 105 57 54 69 46 341 316 272 268 277 299 286 311 302 285 274 273 266 276 290 293 291 293 293 290 288 284 278 276 276 272 272 250 266 274 260 271
116 123 137 122 126 129 153 169 215 221 237 247 264 278 281 277 259 253 263 257 255 258 252 253 260 287 309 301 298 295 297 289 283 279 278 276 275 273 263 265 257 269 265
155 161 156 155 162 180 193 202 216 241 253 248 265 272 286 271 261 266 278 255 258 262 276 288 292 310 304 299 296 291 282 284 282 281 276 271 274 273 289 267 255 262 275
167 170 186 172 188 202 220 243 274 278 274 279 282 273 275 271 272 267 283 277 268 289 290 298 303 303 307 300 298 295 282 270 267 276 274 266 270 272 272 277 275 270 264
165 190 197 200 222 237 264 279 273 253 261 271 277 271 269 289 294 295 295 304 289 285 279 272 280 298 299 302 298 299 291 279 267 260 265 270 260 262 259 261 266 272 287
239 269 264 243 247 261 262 262 262 257 276 270 264 282 283 286 284 279 281 293 279 276 276 274 292 299 296 301 301 299 296 284 270 260 263 268 264 261 256 266 261 274 273
236 240 241 237 236 254 256 269 255 243 265 275 290 269 261 266 278 277 284 282 288 291 294 297 305 303 305 304 305 303 297 293 286 268 266 271 269 254 251 248 252 254 260
234 247 263 258 254 258 274 264 280 285 289 286 273 284 281 270 275 274 279 274 271 297 305 312 311 311 309 310 307 299 291 293 288 271 269 273 273 273 248 242 235 235 247
252 270 277 274 269 277 280 285 279 271 273 281 280 284 278 271 259 268 261 263 277 273 301 300 304 310 309 311 310 306 298 297 280 263 265 266 267 263 254 245 243 244 243
249 254 261 267 269 270 269 280 291 274 253 275 263 273 283 286 279 252 268 275 288 277 286 296 305 312 313 313 319 317 313 290 264 259 262 262 256 261 260 256 253 255 257
227 248 251 255 270 270 256 245 256 272 265 262 272 274 280 284 281 249 261 279 270 277 301 307 308 301 303 310 321 328 329 307 272 256 255 256 261 260 254 248 251 251 253
236 252 268 263 263 272 256 250 239 251 231 254 256 258 260 279 276 214 218 230 244 263 322 310 303 312 315 313 322 324 333 334 325 281 256 261 263 255 252 253 252 253 254
251 259 250 260 272 259 264 293 239 235 261 239 249 248 272 250 255 215 230 237 239 296 332 280 293 301 306 313 320 325 327 344 342 335 323 283 271 265 261 256 247 241 247
237 259 257 254 261 267 267 245 280 301 236 250 257 263 215 244 258 229 237 242 255 288 217 272 269 278 288 300 309 320 324 331 329 341 341 329 290 274 267 259 253 248 243
246 248 258 259 247 261 248 252 254 267 282 296 296 271 283 247 256 234 210 99 289 199 225 255 267 272 282 296 312 319 316 315 327 339 339 341 329 319 301 267 260 246 236
247 251 244 243 243 247 262 259 247 261 255 262 284 289 265 259 276 246 164 200 226 241 246 256 258 270 278 281 292 303 306 308 313 321 328 336 338 337 328 319 290 236 220
248 249 249 261 265 265 258 256 263 263 265 264 267 260 269 205 236 221 212 213 225 235 244 242 248 246 261 275 284 288 303 311 313 314 318 325 335 331 338 342 341 307 222
242 257 249 242 241 257 257 265 263 264 263 270 268 265 231 213 245 230 229 217 225 233 238 236 243 240 249 263 274 284 292 301 303 302 309 321 329 330 340 341 348 340 307
238 251 259 253 259 258 255 256 258 258 265 267 267 270 260 217 239 241 231 232 230 230 235 233 238 236 224 237 260 278 288 296 304 309 306 307 319 331 338 350 351 351 352
241 256 260 258 251 252 259 258 258 261 265 268 267 265 263 242 236 242 240 237 230 232 232 222 230 241 226 221 222 230 260 271 287 299 301 314 329 331 338 340 355 352 352
238 246 248 254 254 250 253 260 265 262 263 267 266 265 258 259 265 261 251 246 242 241 232 222 227 230 238 232 229 211 219 255 285 290 300 304 322 332 329 348 343 353 350
243 246 244 249 255 256 260 260 262 264 271 270 281 273 293 276 301 283 275 288 304 302 309 309 281 271 270 264 260 272 270 277 308 308 321 314 318 338 337 331 329 336 5
253 245 248 252 252 255 256 262 262 260 263 259 259 261 260 337 325 319 351 18 15 19 33 42 21 0 354 340 338 321 319 303 315 333 324 304 319 318 331 345 347 334 336